This is the latest recevied weather packets stored in our database for station/object N2PUI. If no packets are shown the sender has not sent any weather packets the latest 10 day(s).
| Time | Temp. | Humidity | Pressure | Rain* | Wind** | Luminosity | Snow |
|---|---|---|---|---|---|---|---|
| 1778091808 | 8.33° C | 95% | 1007.7 hPa | 0 mm | - | 117 W/m² | - |
| 1778091505 | 8.33° C | 95% | 1007.8 hPa | 0 mm | - | 111 W/m² | - |
| 1778091203 | 8.33° C | 95% | 1007.7 hPa | 0 mm | - | 106 W/m² | - |
| 1778090900 | 8.33° C | 95% | 1007.7 hPa | 0 mm | - | 107 W/m² | - |
| 1778090596 | 8.33° C | 95% | 1007.8 hPa | 0 mm | - | 97 W/m² | - |
| 1778090292 | 8.89° C | 95% | 1007.7 hPa | 0 mm | - | 139 W/m² | - |
| 1778089989 | 8.89° C | 95% | 1007.6 hPa | 0 mm | - | 117 W/m² | - |
| 1778089687 | 8.89° C | 95% | 1007.5 hPa | 0 mm | - | 127 W/m² | - |
| 1778089384 | 8.89° C | 95% | 1007.3 hPa | 0 mm | - | 123 W/m² | - |
| 1778089081 | 8.89° C | 95% | 1007.5 hPa | 0 mm | - | 105 W/m² | - |
| 1778088778 | 8.89° C | 95% | 1007.2 hPa | 0 mm | - | 111 W/m² | - |
| 1778088475 | 8.89° C | 95% | 1007.4 hPa | 0 mm | - | 81 W/m² | - |
| 1778088171 | 8.89° C | 95% | 1007.3 hPa | 1.27 mm | - | 89 W/m² | - |
| 1778087869 | 8.89° C | 95% | 1007.2 hPa | 1.27 mm | - | 93 W/m² | - |
| 1778087566 | 8.89° C | 95% | 1007 hPa | 0 mm | - | 119 W/m² | - |
| 1778087264 | 9.44° C | 95% | 1007.2 hPa | 0 mm | - | 78 W/m² | - |
| 1778086960 | 8.89° C | 95% | 1007.4 hPa | 0 mm | - | 71 W/m² | - |
| 1778086659 | 9.44° C | 95% | 1007.1 hPa | 0 mm | - | 77 W/m² | - |
| 1778086355 | 9.44° C | 95% | 1007.1 hPa | 0 mm | - | 85 W/m² | - |
| 1778086052 | 9.44° C | 95% | 1007.1 hPa | 0 mm | - | 58 W/m² | - |
| 1778085749 | 10° C | 95% | 1006.8 hPa | 0 mm | - | 69 W/m² | - |
| 1778085446 | 10° C | 95% | 1006.9 hPa | 0 mm | - | 55 W/m² | - |
| 1778085141 | 10° C | 95% | 1007 hPa | 0 mm | - | 52 W/m² | - |
| 1778084837 | 10.56° C | 95% | 1007.1 hPa | 0 mm | - | 40 W/m² | - |
| 1778084534 | 11.11° C | 95% | 1006.9 hPa | 0 mm | - | 48 W/m² | - |
* Rain latest hour (hover to see other rain measurements)
** Current wind speed in m/s (hover to see current wind gust speed)